Weather reports worldwide

Advertisment
Bridgefoot, United Kingdom (99137): temperature & dewpoint: 21.04.2017 04:00:00 - 27.04.2017 04:00:00 (BST)Bridgefoot, United Kingdom (99137): precipitation: 21.04.2017 04:00:00 - 27.04.2017 04:00:00 (BST)
Date & Time tt [°C] td [°C] rr [mm]
27.04.2017 04:00:00 - - -
27.04.2017 03:00:00 3,7 2,7 0,0
27.04.2017 02:00:00 2,9 1,6 0,0
27.04.2017 01:00:00 2,5 0,9 0,0
27.04.2017 00:00:00 3,5 1,3 0,0
26.04.2017 23:00:00 5,4 1,0 0,0
26.04.2017 22:00:00 6,0 0,6 0,0
26.04.2017 21:00:00 6,8 0,1 0,0
26.04.2017 20:00:00 7,2 0,0 0,0
26.04.2017 19:00:00 7,5 -1,0 0,0
26.04.2017 18:00:00 7,9 -2,5 0,0
26.04.2017 17:00:00 8,6 -1,0 0,0
26.04.2017 16:00:00 8,4 -1,8 0,0
26.04.2017 15:00:00 8,7 -2,3 0,0
26.04.2017 14:00:00 8,8 -4,0 0,0
26.04.2017 13:00:00 8,8 -4,1 0,0
26.04.2017 12:00:00 7,3 -3,1 0,0
26.04.2017 11:00:00 6,3 -2,1 0,0
26.04.2017 10:00:00 5,3 -1,8 0,0
26.04.2017 09:00:00 4,0 -2,2 0,0
26.04.2017 08:00:00 3,2 -0,5 0,0
26.04.2017 07:00:00 -1,5 -2,5 0,0
26.04.2017 06:00:00 -2,8 -4,1 0,0
26.04.2017 05:00:00 -1,8 -3,8 0,0
26.04.2017 04:00:00 0,8 -3,2 0,0
26.04.2017 03:00:00 1,4 -1,7 0,0
26.04.2017 02:00:00 -0,3 -2,5 0,0
26.04.2017 01:00:00 1,4 -2,5 0,0
26.04.2017 00:00:00 3,4 -0,9 0,0
25.04.2017 23:00:00 3,5 -0,3 0,0
25.04.2017 22:00:00 3,6 -0,1 0,2
25.04.2017 21:00:00 5,3 0,5 0,0
25.04.2017 20:00:00 6,4 -0,3 0,0
25.04.2017 19:00:00 7,4 -0,9 0,0
25.04.2017 18:00:00 6,5 -0,5 0,0
25.04.2017 17:00:00 6,6 0,8 0,0
25.04.2017 16:00:00 7,2 1,4 0,6
25.04.2017 15:00:00 4,1 0,0 0,8
25.04.2017 14:00:00 8,1 -1,0 0,0
25.04.2017 13:00:00 7,1 -2,6 0,0
25.04.2017 12:00:00 8,2 -1,1 0,0
25.04.2017 11:00:00 6,7 -2,3 0,0
25.04.2017 10:00:00 6,4 -3,0 0,0
25.04.2017 09:00:00 5,4 -0,7 0,0
25.04.2017 08:00:00 4,1 -1,3 0,0
25.04.2017 07:00:00 0,2 -2,0 0,0
25.04.2017 06:00:00 -0,7 -3,6 0,0
25.04.2017 05:00:00 1,8 -2,3 0,0
25.04.2017 04:00:00 2,0 -0,9 0,0
25.04.2017 03:00:00 2,9 -0,5 0,0
25.04.2017 02:00:00 1,1 -1,1 0,0
25.04.2017 01:00:00 2,5 -1,3 0,0
25.04.2017 00:00:00 3,4 -0,2 0,0
24.04.2017 23:00:00 3,4 -1,4 0,0
24.04.2017 22:00:00 3,4 -3,7 0,0
24.04.2017 21:00:00 3,9 -4,1 0,0
24.04.2017 20:00:00 5,1 -3,9 0,0
24.04.2017 19:00:00 6,7 -2,1 0,0
24.04.2017 18:00:00 6,6 -2,3 0,0
24.04.2017 17:00:00 7,4 -2,7 0,0
24.04.2017 16:00:00 8,8 -4,2 0,0
24.04.2017 15:00:00 9,4 -1,5 0,0
24.04.2017 14:00:00 9,8 -1,6 0,0
24.04.2017 13:00:00 8,9 1,3 0,0
24.04.2017 12:00:00 8,3 0,7 0,0
24.04.2017 11:00:00 9,2 0,9 0,0
24.04.2017 10:00:00 8,5 2,2 0,0
24.04.2017 09:00:00 8,8 4,4 0,0
24.04.2017 08:00:00 7,8 6,3 0,2
24.04.2017 07:00:00 8,4 6,9 0,0
24.04.2017 06:00:00 8,5 6,7 0,0
24.04.2017 05:00:00 8,0 5,9 0,0
24.04.2017 04:00:00 8,5 6,8 0,0
24.04.2017 03:00:00 8,7 7,2 0,0
24.04.2017 02:00:00 8,8 7,0 0,0
24.04.2017 01:00:00 8,2 5,9 0,0
24.04.2017 00:00:00 8,4 6,2 0,0
23.04.2017 23:00:00 8,7 7,7 0,0
23.04.2017 22:00:00 9,0 8,3 0,0
23.04.2017 21:00:00 8,1 7,4 0,4
23.04.2017 20:00:00 8,8 4,9 0,0
23.04.2017 19:00:00 9,2 4,5 0,0
23.04.2017 18:00:00 9,6 3,7 0,0
23.04.2017 17:00:00 10,1 4,0 0,0
23.04.2017 16:00:00 10,9 3,2 0,0
23.04.2017 15:00:00 10,9 5,1 0,0
23.04.2017 14:00:00 10,8 4,3 0,0
23.04.2017 13:00:00 10,7 4,2 0,0
23.04.2017 12:00:00 10,4 4,3 0,0
23.04.2017 11:00:00 9,6 3,8 0,0
23.04.2017 10:00:00 8,6 4,0 0,0
23.04.2017 09:00:00 7,1 5,7 0,0
23.04.2017 08:00:00 2,9 2,8 0,0
23.04.2017 07:00:00 -0,1 -0,5 0,0
23.04.2017 06:00:00 -1,1 -1,6 0,0
23.04.2017 05:00:00 -0,3 -0,8 0,0
23.04.2017 04:00:00 -0,2 -0,9 0,0
23.04.2017 03:00:00 1,1 0,4 0,0
23.04.2017 02:00:00 1,9 0,9 0,0
23.04.2017 01:00:00 3,0 1,9 0,0
23.04.2017 00:00:00 2,9 1,4 0,0
22.04.2017 23:00:00 4,9 1,7 0,0
22.04.2017 22:00:00 6,3 2,7 0,0
22.04.2017 21:00:00 7,6 4,2 0,0
22.04.2017 20:00:00 8,9 4,5 0,0
22.04.2017 19:00:00 10,6 4,6 0,0
22.04.2017 18:00:00 10,1 5,0 0,0
22.04.2017 17:00:00 10,3 4,5 0,0
22.04.2017 16:00:00 10,1 3,4 0,0
22.04.2017 15:00:00 10,9 2,1 0,0
22.04.2017 14:00:00 10,9 1,7 0,0
22.04.2017 13:00:00 10,7 0,9 0,0
22.04.2017 12:00:00 10,2 0,1 0,0
22.04.2017 11:00:00 9,8 2,3 0,0
22.04.2017 10:00:00 8,0 1,7 0,0
22.04.2017 09:00:00 7,2 2,2 0,0
22.04.2017 08:00:00 5,4 5,1 0,0
22.04.2017 07:00:00 0,3 0,0 0,0
22.04.2017 06:00:00 -0,9 -1,3 0,0
22.04.2017 05:00:00 -0,4 -0,9 0,0
22.04.2017 04:00:00 0,7 0,3 0,0
22.04.2017 03:00:00 1,2 0,5 0,0
22.04.2017 02:00:00 1,9 0,5 0,0
22.04.2017 01:00:00 4,2 1,7 0,0
22.04.2017 00:00:00 6,7 3,8 0,0
21.04.2017 23:00:00 7,6 3,6 0,0
21.04.2017 22:00:00 8,3 4,0 0,0
21.04.2017 21:00:00 9,2 4,1 0,0
21.04.2017 20:00:00 10,5 6,5 0,0
21.04.2017 19:00:00 11,8 7,0 0,0
21.04.2017 18:00:00 12,5 8,4 0,0
21.04.2017 17:00:00 12,3 8,8 0,0
21.04.2017 16:00:00 11,9 8,5 0,0
21.04.2017 15:00:00 11,9 8,4 0,0
21.04.2017 14:00:00 11,5 9,2 0,0
21.04.2017 13:00:00 11,5 8,7 0,0
21.04.2017 12:00:00 10,7 8,6 0,0
21.04.2017 11:00:00 10,8 9,3 0,0
21.04.2017 10:00:00 10,5 9,3 0,0
21.04.2017 09:00:00 9,6 9,0 0,4
21.04.2017 08:00:00 9,7 8,4 0,0
21.04.2017 07:00:00 9,4 8,2 0,0
21.04.2017 06:00:00 9,4 8,1 0,0
21.04.2017 05:00:00 9,6 8,3 0,0
21.04.2017 04:00:00 9,6 7,8 0,0

tt = temperature
td = dewpoint
rr = precipitation

Next stations